Flag for Denmark Weather past 2 weeks in Hirtshals, Denmark

Now
48 °F

Cool.


Feels Like: 42 °F
Forecast: 40 / 45 °F
Wind: 13 mph from Southwest

Location: Aalborg

Current Time: Mar 29, 2015 at 1:25:21 PM

Latest Report: Mar 29, 2015 at 12:00 PM


Visibility: 22 mi

Pressure: 29.23 "Hg

Humidity: 81%

Dew point: 42 °F

Location of HirtshalsLocation

Historic Weather in Hirtshals — Graph

°F

Hirtshals temperature yesterday

Maximum temperature yesterday: 48 °F (at 2:00 PM)
Minimum temperature yesterday: 36 °F (at 6:00 AM)
Average temperature yesterday: 42 °F

Past Weeks' High & Low Weather Summary

 TemperatureHumidityPressure
High54 °F (Mar 19, 2:00 PM)100% (Mar 24, 5:00 AM)30.70 "Hg (Mar 24, 5:00 AM)
Low25 °F (Mar 22, 3:00 AM)36% (Mar 19, 2:00 PM)29.23 "Hg (Mar 29, 10:00 AM)
Average42 °F80%30.15 "Hg
* Reported Mar 14 11:00 AM — Mar 29 12:00 Noon, Hirtshals, Weather by CustomWeather, © 2015

Note: Actual official high and low records may vary slightly from our data, if they occured in-between our weather recording intervals... More about our weather records

Advertising

Hirtshals weather history for previous 24 hours

 ConditionsComfort  
Time TempWeatherWind HumidityBarometerVisibility
12:00 PM
Sun, Mar 29
48 °FCool.13 mph81%29.23 "Hg22 mi
11:00 AM46 °FOvercast.14 mph84%29.23 "Hg16 mi
10:00 AM45 °FCool.10 mph90%29.23 "Hg9 mi
9:00 AM44 °FQuite cool.13 mph93%29.26 "Hg8 mi
8:00 AM44 °FLow clouds.12 mph94%29.26 "Hg7 mi
7:00 AM45 °FQuite cool.12 mph95%29.26 "Hg5 mi
6:00 AM45 °FRain showers. Overcast.9 mph94%29.26 "Hg5 mi
4:00 AM46 °FRain showers. Overcast.10 mph97%29.32 "Hg8 mi
3:00 AM46 °FFog.13 mph97%29.32 "Hg3 mi
1:00 AM45 °FLow clouds.15 mph94%29.35 "Hg6 mi
12:00 AM44 °FQuite cool.18 mph93%29.41 "Hg4 mi
11:00 PM
Sat, Mar 28
43 °FRain showers. Overcast.20 mph90%29.44 "Hg5 mi
9:00 PM41 °FLight rain. Overcast.22 mph89%29.55 "Hg9 mi
8:00 PM41 °FLight rain. Overcast.18 mph88%29.61 "Hg16 mi
7:00 PM43 °FLight rain. Overcast.17 mph82%29.66 "Hg5 mi
6:00 PM45 °FCool.17 mph67%29.70 "Hg22 mi
5:00 PM46 °FCool.15 mph61%29.74 "Hg22 mi
4:00 PM47 °FOvercast.15 mph54%29.79 "Hg16 mi
3:00 PM48 °FCool.15 mph57%29.82 "Hg22 mi
2:00 PM48 °FCool.15 mph56%29.86 "Hg22 mi
1:00 PM47 °FOvercast.10 mph63%29.91 "Hg16 mi
Weather by CustomWeather, © 2015

See weather overviewHow to use our weather pages